Torna al catalogo

SL-8 DEB

AttivoLEO
NORAD 6289·DEBRIS·🇷🇺 Russia

Lanciato Mar 17, 1969 da Plesetsk Cosmodrome

Loading…

Prossimi Passaggi (prossime 24 ore)

TLE

AggiornatoSource: Space-Track

Epoca: Sep 13, 2026, 19:51 UTC

1 06289U 69024C   26256.82718097 -.00000128  00000-0 -23719-3 0  9997
2 06289  73.9878 164.1113 0012274 308.5014 125.3538 13.28273262777287

Traccia SL-8 DEB in tempo reale con AllMySat

Download on the App Store